RH
100 100 98 99 100 100 100 100 100 98 98 96 98 95 100 94 98 97 98 91 99 90 88 87 93 90 90 98 100 99 90 88 73 56 46 39 32 26
98 100 100 100 100 100 98 100 100 99 98 92 92 98 96 96 94 91 93 93 92 92 88 90 97 92 99 98 92 98 97 94 87 58 45 39 32 28
100 99 99 98 100 99 99 98 98 98 99 93 99 100 92 85 83 82 83 83 85 86 89 97 100 99 92 100 99 97 100 99 96 77 53 43 35 29
100 100 100 99 98 99 100 97 98 99 100 99 94 85 71 51 36 31 31 31 34 42 64 83 100 99 92 100 100 100 100 99 99 98 67 52 37 34
99 100 100 100 99 99 97 96 92 85 72 53 36 29 27 27 25 24 23 23 25 30 35 36 93 86 90 100 99 100 100 97 99 100 96 73 40 35
50 50 53 51 45 40 36 31 28 24 22 18 14 9 8 8 9 9 9 9 10 11 13 36 51 56 100 80 100 98 99 100 100 100 100 65 49 43
22 17 14 11 10 9 8 8 8 8 8 7 6 6 5 5 4 4 4 5 6 8 10 13 41 57 100 90 100 99 99 99 99 99 100 89 55 50
8 7 6 6 6 5 5 4 4 4 3 3 3 2 2 2 3 3 3 3 4 5 9 12 35 81 100 100 100 100 99 99 100 98 100 96 87 55
5 5 4 4 4 4 4 3 3 3 2 2 2 2 2 3 3 3 4 5 5 9 33 16 37 50 88 98 97 98 99 98 98 98 98 97 80 45
5 6 5 5 4 4 4 3 2 2 2 2 2 2 3 3 4 4 5 7 10 12 58 76 52 95 98 96 98 98 98 98 99 99 98 97 88 53
6 6 6 6 6 5 3 3 2 2 2 2 2 2 3 3 5 6 9 12 15 24 49 70 80 91 84 97 97 97 98 98 100 98 97 84 62 59
8 9 10 9 5 4 3 3 2 2 2 3 3 4 6 8 11 16 20 21 81 27 38 80 97 86 94 93 93 100 99 93 98 97 96 81 64 50
10 8 8 6 4 4 4 4 3 4 5 5 5 8 11 14 19 26 26 32 45 99 90 89 96 75 73 94 90 95 97 97 96 98 96 74 46 34
8 9 8 5 4 4 4 4 6 8 11 10 10 12 18 25 31 33 35 47 99 97 92 86 97 100 96 96 95 98 98 97 98 97 97 58 32 37
8 9 7 5 5 5 6 6 9 12 17 15 12 14 22 33 40 47 53 66 88 93 73 94 96 96 95 93 92 97 97 96 96 97 72 33 44 53
8 9 7 6 6 7 7 10 14 18 24 19 13 16 25 45 58 73 82 80 80 96 84 93 93 96 97 96 96 97 94 97 96 73 36 47 62 67
9 8 8 7 6 7 9 12 19 26 29 22 16 21 33 58 77 75 90 95 97 96 100 95 94 94 94 94 95 94 98 97 94 40 46 71 75 72
10 9 8 8 7 9 11 15 24 28 30 26 20 29 41 70 85 81 76 80 92 98 96 96 95 96 94 91 94 96 98 96 76 44 75 92 89 91
10 10 9 8 9 11 14 25 31 34 35 29 27 38 49 76 84 84 85 85 89 92 96 95 95 95 94 94 95 95 96 95 74 90 96 96 96 95
11 11 11 11 12 15 22 32 39 41 45 38 43 48 59 78 85 87 89 93 92 94 92 96 99 97 96 96 96 97 97 94 91 96 96 96 96 88
14 14 14 14 17 21 34 41 46 50 48 46 51 54 66 83 87 90 94 94 92 91 93 96 96 96 96 94 95 95 96 93 94 95 97 96 90 94
15 16 15 19 25 32 41 46 52 58 58 61 60 61 70 88 89 93 96 96 93 93 93 94 93 96 97 99 97 95 96 94 96 96 95 90 75 87
16 17 20 24 31 42 48 54 58 60 66 65 62 64 82 91 90 94 96 96 96 95 94 97 96 96 97 98 99 96 96 96 96 96 95 92 91 82
Wind_Speed
32 27 28 34 31 27 29 31 35 38 36 33 36 30 33 34 36 36 37 34 33 37 38 37 34 33 31 33 34 37 37 38 40 38 37 34 35 34
22 26 31 27 27 30 31 31 35 40 41 36 38 39 39 38 40 39 42 43 42 42 42 39 36 34 37 35 35 37 38 41 43 44 39 38 37 37
21 22 26 26 30 31 32 34 34 34 41 43 48 45 47 47 47 47 47 48 48 45 44 41 41 44 41 44 44 43 42 44 47 47 42 42 40 39
8 16 23 21 23 24 28 32 34 37 45 49 50 52 52 52 52 52 52 52 53 52 51 50 42 44 45 42 46 42 44 44 47 49 46 44 43 38
16 18 24 23 24 30 35 38 41 44 47 52 55 56 57 57 58 57 56 56 56 54 54 55 46 47 50 49 45 47 42 41 48 54 50 45 41 39
19 21 26 29 32 35 39 42 45 48 50 54 57 58 59 60 60 60 61 59 58 55 53 49 49 51 49 55 52 49 52 45 50 54 53 44 42 40
25 27 29 33 35 39 42 44 47 50 52 54 56 58 59 60 61 60 61 59 57 55 52 48 47 50 49 48 53 57 60 44 49 48 48 43 39 36
26 28 31 34 37 40 43 45 48 51 52 54 57 58 59 58 57 58 59 58 58 55 49 48 45 45 47 51 50 51 45 51 47 49 46 47 34 33
27 30 33 36 39 41 45 46 47 48 51 53 56 56 58 57 59 59 57 55 54 47 46 45 40 44 48 46 52 54 52 44 42 41 45 40 28 28
31 33 36 38 41 44 45 47 46 46 48 52 55 56 56 56 55 55 54 53 49 44 38 43 43 44 36 46 39 47 45 41 43 40 38 35 23 29
33 35 37 39 41 43 45 46 46 46 48 48 48 47 47 46 45 48 46 45 46 41 38 41 44 45 41 36 35 38 47 45 44 42 36 29 25 29
34 36 39 40 41 42 44 45 46 45 43 40 37 36 35 36 37 40 41 41 39 40 37 38 36 36 32 39 34 36 49 48 46 38 29 28 27 28
34 37 39 39 40 41 42 44 44 44 39 38 36 32 29 28 31 33 34 35 33 29 38 36 36 35 38 32 30 26 28 30 30 31 29 28 25 22
36 37 38 38 39 39 39 40 39 38 37 37 35 32 31 30 29 28 27 27 27 26 26 30 32 27 30 26 24 23 28 31 27 31 29 27 23 22
38 38 39 38 38 37 36 35 34 34 35 34 32 31 30 29 26 26 24 23 24 24 24 24 26 25 25 23 24 20 24 23 26 24 25 27 24 24
40 40 41 40 39 37 34 32 32 34 34 34 31 29 27 25 23 22 18 20 20 21 23 22 25 25 20 19 19 18 21 22 24 25 25 25 23 21
39 39 39 39 38 36 34 32 31 32 33 32 31 29 26 23 22 20 17 17 18 19 19 19 20 19 16 17 19 17 20 22 25 25 26 23 20 18
39 39 38 37 36 33 31 29 30 32 32 29 28 26 25 22 20 19 20 18 18 19 19 18 17 15 14 14 15 17 19 23 24 26 26 23 20 19
39 39 39 39 37 34 32 30 30 29 27 26 25 23 24 22 20 19 18 19 18 19 19 18 15 14 12 11 12 13 23 30 28 31 26 24 21 18
37 37 36 36 34 32 31 30 27 24 23 23 22 22 23 21 20 18 18 17 17 16 16 17 16 14 12 13 12 11 28 29 29 30 26 23 21 18
36 35 35 34 32 31 30 29 25 22 22 22 21 22 22 20 19 19 17 18 18 16 16 14 16 15 15 15 17 15 26 30 33 31 29 27 20 19
35 34 34 33 31 30 28 27 23 21 21 22 22 22 21 19 18 18 16 16 16 15 15 14 15 15 15 15 18 18 23 32 27 31 32 29 23 21
35 33 32 31 30 29 27 25 22 20 21 22 21 21 19 17 18 16 15 14 14 14 15 14 13 14 14 15 21 24 23 31 29 32 34 32 27 23
Wind_Direction
264 267 257 265 262 254 259 263 268 275 275 278 282 282 282 276 283 283 287 287 278 288 288 285 284 285 284 278 274 267 270 273 275 276 276 275 275 274
256 253 263 257 252 258 261 267 267 273 278 280 283 285 281 279 279 281 279 280 281 281 281 282 278 278 279 279 275 268 271 270 270 270 271 272 270 271
258 257 255 260 266 263 263 269 274 272 282 281 286 283 286 288 286 284 283 281 280 278 277 272 274 278 283 278 273 272 273 273 268 263 269 272 271 268
263 261 261 266 268 268 273 272 274 277 277 280 282 283 283 283 283 283 283 283 283 280 277 273 267 269 272 273 274 270 276 273 270 259 264 270 269 268
273 275 270 265 272 266 272 273 275 275 276 279 281 282 284 284 284 283 283 282 280 280 279 277 267 270 264 267 265 274 279 271 270 266 259 263 264 266
266 264 264 267 269 271 273 274 275 277 278 280 281 283 283 285 285 285 284 282 281 279 277 275 272 264 261 264 276 266 262 269 270 266 264 257 263 264
270 272 273 274 274 276 277 278 279 279 280 282 284 285 285 286 286 287 285 285 283 282 281 277 265 264 258 257 264 261 268 265 271 267 264 253 262 262
278 280 279 279 280 281 284 286 286 287 287 288 287 289 290 290 291 291 290 289 288 285 280 275 266 254 255 259 263 263 268 270 267 264 263 246 248 259
286 286 287 288 287 288 287 288 289 290 292 292 292 293 294 294 293 293 294 292 290 285 280 275 268 256 257 256 261 259 258 259 267 265 258 247 249 251
291 290 290 290 292 292 291 291 291 291 291 291 292 293 294 295 294 294 293 292 288 286 277 280 273 265 273 256 260 260 265 260 262 269 260 238 240 249
295 295 295 296 295 293 294 296 297 297 296 296 296 294 293 292 292 291 290 287 286 280 275 274 272 281 276 277 275 266 258 264 260 264 247 244 240 236
299 302 302 302 301 300 301 302 302 301 301 300 298 296 294 292 288 286 287 286 283 286 285 279 280 275 285 281 277 270 256 259 256 249 241 242 231 229
305 304 303 304 306 307 307 307 306 306 309 309 309 307 301 293 291 292 288 282 282 285 286 270 284 279 281 279 285 275 269 252 250 243 234 235 221 218
306 306 309 310 308 309 308 306 305 306 308 312 313 312 310 306 302 294 286 275 275 284 287 280 280 276 283 272 278 273 269 264 260 236 220 223 212 213
309 311 311 310 311 310 308 306 304 304 308 312 312 308 306 303 299 295 292 281 278 278 290 283 278 279 275 273 262 264 265 250 222 214 206 206 202 211
312 312 313 314 315 314 312 308 307 308 308 308 307 305 306 305 298 294 296 293 278 284 273 280 276 279 278 268 257 255 253 248 216 199 195 198 201 212
311 313 314 314 315 314 313 310 307 305 303 303 305 305 306 300 299 282 293 297 293 295 299 294 279 274 270 265 261 254 247 234 199 194 193 194 201 213
312 312 313 314 316 314 310 306 302 300 298 299 300 302 303 299 293 282 279 285 293 300 310 293 280 265 257 258 256 255 240 218 188 196 188 189 199 209
312 314 316 318 317 315 311 308 305 299 295 295 299 300 299 293 285 285 280 280 281 287 298 300 284 267 249 244 254 264 227 199 190 195 184 189 195 198
313 315 316 316 314 312 310 311 308 301 298 298 299 296 296 291 281 280 276 275 280 285 286 290 285 267 250 231 234 248 196 185 193 190 181 180 180 174
313 314 315 314 313 312 312 312 308 304 300 297 296 293 296 288 278 276 277 273 274 276 282 281 275 256 243 225 216 216 204 190 192 181 175 174 174 183
312 313 314 314 313 312 311 309 305 302 298 296 297 297 296 285 275 271 273 272 275 271 272 270 262 252 244 232 212 213 212 200 193 190 183 169 179 180
311 312 313 311 312 313 310 306 302 298 297 298 299 297 291 283 274 269 269 269 271 265 264 259 256 257 251 238 220 216 215 206 195 196 186 173 175 178